www.pogodaiklimat.ru

Погода и климат >> Архив погоды >> Россия >> Магаданская область >> Лабазная


ПОГОДА в Лабазной

  • Прогноз погоды в Лабазной
  • Монитор погоды в Лабазной

АРХИВ ПОГОДЫ в Лабазной

Время (UTC), дата Ветер
(напр.,м/с)
 
Видим.   Явления Облачность Т
(С)
Тd
(С)
f
(%)
Тe
(С)
Тes
(С)
Комфортность P
(гПа)
Po
(гПа)
Тmin
(С)
Tmax
(С)
R
(мм)
R24
(мм)
S
(см)
00 17.01 штиль 0 50 км 10/0
[Ac trans Ci fib]
-41.1 -45.5 62 -41 -41 опасность
обморожения
1031.5 930.1 -41.3
03 17.01 Ю 1 50 км 1/0
[Ci fib]
-39.0 -43.1 65 -44 -44 опасность
обморожения
1028.6 928.3
06 17.01 Ю 1 20 км 3/0
[Ci fib]
-39.9 -44.1 64 -45 -45 опасность
обморожения
1027.9 927.3
09 17.01 Ю 1 50 км ясно -40.8 -45.1 63 -46 -46 опасность
обморожения
1027.1 926.3 -38.2
12 17.01 Ю 1 50 км ясно -39.2 -43.3 65 -44 -44 опасность
обморожения
1025.0 925.0
15 17.01 штиль 0 50 км ясно -42.8 -47.4 60 -43 -43 опасность
обморожения
1025.6 924.1
18 17.01 штиль 0 50 км ясно -43.2 -47.7 61 -43 -43 опасность
обморожения
1024.9 923.3
21 17.01 штиль 0 50 км ясно -42.4 -46.9 61 -42 -42 опасность
обморожения
1024.1 922.9 -45.0 18
00 18.01 штиль 0 50 км 8/0
[Ac trans Ci fib]
-39.9 -44.1 64 -40 -40 опасность
обморожения
1023.2 923.1
03 18.01 штиль 0 50 км 8/0
[Ac trans Ci fib]
-39.8 -44.1 63 -40 -40 опасность
обморожения
1022.7 922.7
06 18.01 штиль 0 н/о н/о -35.1 -38.7 69 -35 -35 опасность
обморожения
1020.5 922.5
09 18.01 ЮЗ 1 50 км 10/10 1000 м
[Sc]
-32.0 -35.3 72 -36 -36 опасность
обморожения
1019.5 922.9 -32.0
12 18.01 штиль 0 20 км слаб. снег 10/4 1000 м
[Sc As op]
-28.4 -31.3 76 -28 -28 1018.6 923.4
15 18.01 штиль 0 20 км слаб. снег 10/6 1000 м
[Sc As op]
-28.3 -31.2 76 -28 -28 1018.6 923.4
18 18.01 ЮЗ 2 10 км слаб. снег 10/0
[As op]
-28.9 -31.8 76 -36 -36 опасность
обморожения
1019.6 924.1
21 18.01 ЮЗ 1 20 км слаб. снег 10/3 1000 м
[Sc As op]
-32.2 -35.4 73 -37 -37 опасность
обморожения
1022.1 925.2 -32.5 1 19
00 19.01 З 1 50 км {снег} 10/5 1000 м
[Sc Ac trans Ci fib]
-35.3 -38.9 69 -40 -40 опасность
обморожения
1025.0 926.6 -36.4
03 19.01 Ю 1 50 км 10/0
[Ci fib]
-33.7 -37.3 70 -38 -38 опасность
обморожения
1025.0 927.2
06 19.01 штиль 0 50 км 10/0
[Ac trans Ci fib]
-36.7 -40.5 68 -37 -37 опасность
обморожения
1027.9 928.6
09 19.01 ЮЗ 1 50 км 8/0
[Ac trans Ci fib]
-36.7 -40.5 68 -42 -42 опасность
обморожения
1028.5 929.1 -32.2
12 19.01 штиль 0 50 км 10/0
[Ac trans Ci fib]
-39.6 -43.8 64 -40 -40 опасность
обморожения
1030.2 929.6
15 19.01 С 1 50 км 10/0
[Ac trans Ci fib]
-36.7 -40.4 68 -42 -42 опасность
обморожения
1028.1 928.8
18 19.01 СВ 1 50 км 10/0
[Ac trans Ci fib]
-35.8 -39.5 69 -41 -41 опасность
обморожения
1027.4 928.6
21 19.01 С 2 50 км 10/0
[Ac trans Ci fib]
-30.7 -33.8 74 -38 -38 опасность
обморожения
1024.5 927.8 -39.8 19
00 20.01 С 2 20 км слаб. снег 10/3 1000 м
[Sc Ac trans Cs]
-27.4 -30.2 77 -34 -34 опасность
обморожения
1022.4 927.1
03 20.01 С 1 20 км слаб. снег 10/4 1000 м
[Sc Ac trans Cs]
-24.3 -26.6 81 -28 -28 1021.1 927.1
06 20.01 С 2 20 км слаб. ливневой снег 10/10 1000 м
[Cb cap]
-21.2 -23.2 84 -27 -27 1019.1 926.4
09 20.01 В 2 20 км слаб. ливневой снег 10/10 1000 м
[Cb cap]
-18.0 -19.6 87 -23 -23 1018.0 926.5 -18.0 0.8
12 20.01 В 3 10 км слаб. ливневой снег 10/10 1000 м
[Cb cap]
-15.2 -16.5 90 -22 -22 1016.5 926.1
15 20.01 СВ 4 10 км слаб. ливневой снег 10/10 1000 м
[Cb cap]
-13.1 -14.2 91 -20 -20 1015.8 926.1
18 20.01 С 2 10 км слаб. ливневой снег 10/10 1000 м
[Cb cap]
-14.7 -16.0 90 -20 -20 1016.4 926.2
21 20.01 В 1 50 км {ливн. осадки} 10/10 1000 м
[Cb calv]
-12.7 -13.7 92 -15 -15 1016.5 927.0 -17.9 0.8 20
00 21.01 СВ 1 50 км {ливн. осадки} 10/10 1000 м
[Cb calv]
-10.8 -11.5 95 -13 -13 1017.3 928.3
03 21.01 СВ 2 50 км 10/10 1000 м
[Cb calv]
-10.8 -11.6 94 -15 -15 1018.0 928.9
06 21.01 СВ 3 50 км 10/10 1000 м
[Cb calv]
-11.9 -12.7 94 -18 -18 1019.4 929.9
09 21.01 С 2 50 км 10/10 1000 м
[Cb calv]
-11.2 -11.9 95 -16 -16 1020.9 931.5 -10.0
12 21.01 СВ 3 50 км 10/10 1000 м
[Cb calv]
-10.6 -11.3 95 -17 -17 1021.5 932.2
15 21.01 С 1 50 км 10/10 1000 м
[Cb calv]
-10.8 -11.6 94 -13 -13 1021.8 932.4
18 21.01 С 2 н/о н/о -10.4 -11.1 95 -15 -15 1022.0 932.7
21 21.01 С 1 50 км 10/10 1000 м
[Cb calv]
-13.4 -14.7 90 -16 -16 1023.6 933.3 -13.8 22
00 22.01 С 2 н/о н/о -14.6 -15.7 91 -20 -20 1024.8 933.8 -14.8
03 22.01 С 1 50 км 10/10 1000 м
[Cb calv]
-13.4 -14.4 92 -16 -16 1023.5 933.1
06 22.01 СВ 1 20 км слаб. ливневой снег 10/10 1000 м
[Cb cap]
-14.2 -15.3 91 -17 -17 1024.2 933.5
09 22.01 Ю 1 50 км {ливн. осадки} 10/10 1000 м
[Cb calv]
-22.2 -24.0 85 -25 -25 1027.1 933.3 -11.8 0.2
12 22.01 ЮЗ 1 50 км {ливн. осадки} 10/0
[Ac trans Ci fib]
-25.7 -28.1 80 -29 -29 1028.2 933.1
15 22.01 Ю 1 50 км 10/0
[Ac trans Ci fib]
-29.2 -31.9 77 -33 -33 опасность
обморожения
1028.9 932.5
18 22.01 Ю 1 50 км 8/0
[Ci fib]
-29.2 -31.9 77 -33 -33 опасность
обморожения
1028.9 932.5
21 22.01 Ю 1 50 км 5/0
[Ci fib]
-30.5 -33.4 76 -35 -35 опасность
обморожения
1028.6 931.6 -30.6 22
00 23.01 ЮЗ 1 50 км 1/0
[Ci fib]
-30.4 -33.3 76 -35 -34 опасность
обморожения
1027.9 931.1 -31.3
03 23.01 штиль 0 50 км 3/0
[Ci fib]
-22.3 -24.4 83 -22 -22 1023.7 930.2
06 23.01 З 1 50 км 10/0
[Ci fib]
-22.2 -24.1 84 -25 -25 1024.7 931.1
09 23.01 Ю 1 50 км 4/0
[Ci fib]
-28.4 -31.2 77 -32 -32 опасность
обморожения
1027.9 931.8 -21.5
12 23.01 Ю 1 50 км 8/0
[Ac trans Ci fib]
-30.7 -33.7 75 -35 -35 опасность
обморожения
1029.1 932.0
15 23.01 Ю 1 50 км 6/0
[Ac trans Ci fib]
-31.2 -34.2 75 -35 -35 опасность
обморожения
1028.6 931.4
18 23.01 штиль 0 50 км 4/0
[Ac trans Ci fib]
-31.9 -35.2 72 -32 -32 опасность
обморожения
1028.5 931.0
21 23.01 Ю 1 50 км 5/0
[Ac trans Ci fib]
-32.4 -35.6 73 -37 -37 опасность
обморожения
1028.6 931.0 -33.3 22

 

Местоположение метеостанции Лабазная (Магаданская область, Россия): широта 63.30 долгота 158.50 высота над уровнем моря 709 м.

В архиве по умолчанию представлена погода в Лабазной за последнюю неделю. Архивные данные за месяц целиком и за предыдущие месяцы, начиная с января 2011 года, Вы можете получить, выбрав интересующий диапазон дат из раскрывающегося списка и нажав кнопку "Ввод!".


*Определитесь, кто Вы:
робот инопланетянин человек

Внимание! Время в таблицах - всемирное. Для получения местного времени необходимо прибавить поправку, которая равна 11 ч.

Смотрите также архив погоды в соседних городах и на ближайших метеорологических станциях:

Погода в Эвенске (Магаданская область, Россия) (158 км)
Погода в Омсукчане (Магаданская область, Россия) (162 км)
Погода в Кегали (Магаданская область, Россия) (162 км)
Погода в Балыгычане (Магаданская область, Россия) (228 км)
Погода в Омолоне (Чукотка, Россия) (235 км)
Погода в Коркодоне (Магаданская область, Россия) (276 км)
Погода в Верхне-Пенжино (Камчатский край, Россия) (298 км)
Погода в Сеймчане (Магаданская область, Россия) (310 км)
Погода на Шелихова (Магаданская область, Россия) (320 км)
Погода в Среднекане (Магаданская область, Россия) (328 км)

Пояснения к столбцам:

Ветер - указаны скорость ветра в м/с - средняя за 10 мин, порывы в срок и между сроками (в фигурных скобках) и направление, откуда дует ветер: С - северный, СВ - северо-восточный, В - восточный, ЮВ - юго-восточный, Ю - южный, ЮЗ - юго-западный, З - западный, СЗ - северо-западный.
Видимость - горизонтальная дальность видимости в метрах или километрах. При видимости от 1 до 10 км при отсутствии осадков обычно наблюдается дымка, при ухудшении видимости до 1 км и менее - туман. В сухую погоду видимость может ухудшаться дымом, пылью или мглою.
Явления - указаны атмосферные явления, наблюдавшиеся в срок или в последний час перед сроком; фигурными скобками обозначены явления, наблюдавшиеся между сроками (за 1-3 часа до срока); квадратными скобками обозначены град или гололедные отложения с указанием их диаметра в мм.
Облачность - указаны через наклонную черту общая и нижняя облачность в баллах и высота нижней границы облаков в метрах; квадратными скобками обозначены формы облаков: Ci - перистые, Cs - перисто-слоистые, Cc - перисто-кучевые, Ac - высококучевые, As - высокослоистые, Sc - слоисто-кучевые, Ns - слоисто-дождевые, Cu - кучевые, Cb - кучево-дождевые. Подробнее классификацию облаков см. в Атласе облаков (PDF).
T - Температура воздуха - температура, измеренная на высоте 2 м над землей.
Td - Температура точки росы - температура, при понижении до которой содержащийся в воздухе водяной пар достигнет насыщения.
f - Относительная влажность воздуха - влажноcть воздуха, измеренная на высоте 2 м над землей.
Te - Эффективная температура - температура, которую ощущает одетый по сезону человек в тени. Характеристика душности погоды. При расчете учитывается влияние влажности воздуха и скорости ветра на теплоощущения человека.
Tes - Эффективная температура на солнце - температура, которую ощущает человек, с поправкой на солнечный нагрев. Характеристика знойности погоды. Зависит от высоты солнца над горизонтом, облачности и скорости ветра. Ночью, в пасмурную погоду, а также при ветре 12 м/с и более поправка равна нулю.
P - Атмосферное давление - приведенное к уровню моря атмосферное давление.
Po - Атмосферное давление - измеренное на уровне метеостанции атмосферное давление.
Tmin - Минимальная температура - минимум температуры воздуха на высоте 2 м над землей.
Tmax - Максимальная температура - максимум температуры воздуха на высоте 2 м над землей.
R - Количество осадков - Количество выпавших осадков за период времени, мм. При наведении курсора мыши на число - период времени, за который выпало указанное количество осадков.
R24 - Количество осадков - Количество выпавших осадков за 24 часа, мм.
S - Снежный покров - Высота снежного покрова, см. При наведении курсора мыши на число - состояние снежного покрова и степень покрытия местности в баллах.